Time,TemperatureF,DewpointF,PressureIn,WindDirection,WindDirectionDegrees,WindSpeedMPH,WindSpeedGustMPH,Humidity,HourlyPrecipIn,Conditions,Clouds,dailyrainin,SoftwareType,DateUTC
2013-02-05 00:05:00,29.8,26.0,29.87,SSW,195,0.0,0.0,87,0.00,,,0.00,weatherlink.com 1.10,2013-02-05 05:05:00,
2013-02-05 00:20:00,29.8,27.0,29.87,NW,325,1.0,2.0,88,0.00,,,0.00,weatherlink.com 1.10,2013-02-05 05:20:00,
2013-02-05 00:35:00,29.6,27.0,29.87,NW,325,0.0,3.0,89,0.00,,,0.00,weatherlink.com 1.10,2013-02-05 05:35:00,
2013-02-05 00:50:00,29.4,27.0,29.87,North,9,0.0,3.0,90,0.00,,,0.00,weatherlink.com 1.10,2013-02-05 05:50:00,
2013-02-05 01:05:00,29.3,27.0,29.86,NNE,13,0.0,1.0,90,0.00,,,0.00,weatherlink.com 1.10,2013-02-05 06:05:00,
2013-02-05 01:20:00,29.5,27.0,29.86,South,170,0.0,1.0,90,0.00,,,0.00,weatherlink.com 1.10,2013-02-05 06:20:00,
2013-02-05 01:35:00,29.4,27.0,29.86,NE,34,0.0,1.0,90,0.00,,,0.00,weatherlink.com 1.10,2013-02-05 06:35:00,
2013-02-05 01:50:00,29.4,27.0,29.85,NNE,14,0.0,1.0,90,0.00,,,0.00,weatherlink.com 1.10,2013-02-05 06:50:00,
2013-02-05 02:05:00,29.4,27.0,29.85,North,356,0.0,1.0,90,0.00,,,0.00,weatherlink.com 1.10,2013-02-05 07:05:00,
2013-02-05 02:21:00,29.4,27.0,29.85,North,4,0.0,1.0,90,0.00,,,0.00,weatherlink.com 1.10,2013-02-05 07:21:00,
2013-02-05 02:36:00,29.4,27.0,29.84,North,352,1.0,2.0,90,0.00,,,0.00,weatherlink.com 1.10,2013-02-05 07:36:00,
2013-02-05 02:51:00,29.4,27.0,29.84,NNW,345,0.0,1.0,90,0.00,,,0.00,weatherlink.com 1.10,2013-02-05 07:51:00,
2013-02-05 03:06:00,29.4,27.0,29.84,NNW,328,0.0,1.0,90,0.00,,,0.00,weatherlink.com 1.10,2013-02-05 08:06:00,
2013-02-05 03:21:00,29.5,27.0,29.84,NNW,337,0.0,1.0,90,0.00,,,0.00,weatherlink.com 1.10,2013-02-05 08:21:00,
2013-02-05 03:36:00,29.7,27.0,29.84,West,281,0.0,1.0,89,0.00,,,0.00,weatherlink.com 1.10,2013-02-05 08:36:00,
2013-02-05 03:51:00,29.8,27.0,29.84,NNE,22,2.0,2.0,89,0.00,,,0.00,weatherlink.com 1.10,2013-02-05 08:51:00,
2013-02-05 04:06:00,29.7,27.0,29.85,NNW,345,1.0,2.0,89,0.00,,,0.00,weatherlink.com 1.10,2013-02-05 09:06:00,
2013-02-05 04:21:00,29.7,27.0,29.85,North,6,0.0,2.0,89,0.00,,,0.00,weatherlink.com 1.10,2013-02-05 09:21:00,
2013-02-05 04:36:00,29.7,27.0,29.85,NNW,332,1.0,2.0,90,0.00,,,0.00,weatherlink.com 1.10,2013-02-05 09:36:00,
2013-02-05 04:51:00,29.7,27.0,29.85,North,359,1.0,3.0,90,0.00,,,0.00,weatherlink.com 1.10,2013-02-05 09:51:00,
2013-02-05 05:06:00,29.8,27.0,29.85,ENE,72,1.0,3.0,90,0.00,,,0.00,weatherlink.com 1.10,2013-02-05 10:06:00,
2013-02-05 05:21:00,29.9,27.0,29.86,NNW,332,0.0,4.0,90,0.00,,,0.00,weatherlink.com 1.10,2013-02-05 10:21:00,
2013-02-05 05:36:00,30.0,27.0,29.86,NW,323,3.0,5.0,89,0.00,,,0.00,weatherlink.com 1.10,2013-02-05 10:36:00,
2013-02-05 05:51:00,29.9,27.0,29.86,NNW,345,2.0,3.0,90,0.00,,,0.00,weatherlink.com 1.10,2013-02-05 10:51:00,
2013-02-05 06:06:00,29.9,27.0,29.86,NNW,336,0.0,3.0,90,0.00,,,0.00,weatherlink.com 1.10,2013-02-05 11:06:00,
2013-02-05 06:21:00,30.1,27.0,29.87,NW,308,0.0,3.0,89,0.00,,,0.00,weatherlink.com 1.10,2013-02-05 11:21:00,
2013-02-05 06:36:00,30.1,27.0,29.87,North,353,0.0,1.0,89,0.00,,,0.00,weatherlink.com 1.10,2013-02-05 11:36:00,
2013-02-05 06:51:00,29.9,27.0,29.88,North,356,0.0,1.0,89,0.00,,,0.00,weatherlink.com 1.10,2013-02-05 11:51:00,
2013-02-05 07:06:00,30.2,27.0,29.88,WNW,290,0.0,2.0,89,0.00,,,0.00,weatherlink.com 1.10,2013-02-05 12:06:00,
2013-02-05 07:21:00,30.5,27.0,29.88,WNW,295,2.0,3.0,88,0.00,,,0.00,weatherlink.com 1.10,2013-02-05 12:21:00,
2013-02-05 07:36:00,30.2,27.0,29.88,North,353,0.0,2.0,89,0.00,,,0.00,weatherlink.com 1.10,2013-02-05 12:36:00,
2013-02-05 07:51:00,30.2,27.0,29.89,West,263,0.0,2.0,89,0.00,,,0.00,weatherlink.com 1.10,2013-02-05 12:51:00,
2013-02-05 08:06:00,30.4,28.0,29.90,WNW,297,1.0,1.0,89,0.00,,,0.00,weatherlink.com 1.10,2013-02-05 13:06:00,
2013-02-05 08:21:00,30.3,28.0,29.90,West,272,1.0,2.0,89,0.00,,,0.00,weatherlink.com 1.10,2013-02-05 13:21:00,
2013-02-05 08:36:00,30.8,28.0,29.91,West,269,1.0,3.0,89,0.00,,,0.00,weatherlink.com 1.10,2013-02-05 13:36:00,
2013-02-05 08:51:00,31.1,28.0,29.91,NNE,30,0.0,1.0,89,0.00,,,0.00,weatherlink.com 1.10,2013-02-05 13:51:00,
2013-02-05 09:06:00,31.3,28.0,29.91,North,4,0.0,5.0,88,0.00,,,0.00,weatherlink.com 1.10,2013-02-05 14:06:00,
2013-02-05 09:21:00,31.8,29.0,29.90,SSE,153,0.0,1.0,88,0.00,,,0.00,weatherlink.com 1.10,2013-02-05 14:21:00,
2013-02-05 09:36:00,32.4,29.0,29.90,ESE,111,2.0,2.0,86,0.00,,,0.00,weatherlink.com 1.10,2013-02-05 14:36:00,
2013-02-05 09:51:00,32.4,29.0,29.91,West,269,1.0,2.0,86,0.00,,,0.00,weatherlink.com 1.10,2013-02-05 14:51:00,
2013-02-05 10:06:00,32.5,29.0,29.92,West,262,4.0,5.0,85,0.00,,,0.00,weatherlink.com 1.10,2013-02-05 15:06:00,
2013-02-05 10:21:00,32.9,29.0,29.92,West,274,1.0,2.0,86,0.00,,,0.00,weatherlink.com 1.10,2013-02-05 15:21:00,
2013-02-05 10:36:00,33.2,29.0,29.91,West,266,0.0,3.0,85,0.00,,,0.00,weatherlink.com 1.10,2013-02-05 15:36:00,
2013-02-05 10:51:00,34.1,30.0,29.92,North,356,0.0,2.0,85,0.00,,,0.00,weatherlink.com 1.10,2013-02-05 15:51:00,
2013-02-05 11:06:00,34.6,30.0,29.91,WNW,284,0.0,2.0,83,0.00,,,0.00,weatherlink.com 1.10,2013-02-05 16:06:00,
2013-02-05 11:21:00,35.4,30.0,29.90,WNW,283,0.0,3.0,82,0.00,,,0.00,weatherlink.com 1.10,2013-02-05 16:21:00,
2013-02-05 11:51:00,36.3,31.0,29.89,ESE,120,2.0,2.0,81,0.00,,,0.00,weatherlink.com 1.10,2013-02-05 16:51:00,
2013-02-05 12:21:00,36.4,31.0,29.87,WNW,293,0.0,1.0,80,0.00,,,0.00,weatherlink.com 1.10,2013-02-05 17:21:00,
2013-02-05 12:36:00,36.2,31.0,29.86,SE,134,0.0,1.0,80,0.00,,,0.00,weatherlink.com 1.10,2013-02-05 17:36:00,
2013-02-05 12:51:00,36.3,31.0,29.86,West,262,1.0,2.0,80,0.00,,,0.00,weatherlink.com 1.10,2013-02-05 17:51:00,
2013-02-05 13:06:00,36.3,31.0,29.85,West,266,0.0,1.0,80,0.00,,,0.00,weatherlink.com 1.10,2013-02-05 18:06:00,
2013-02-05 13:21:00,36.4,30.0,29.85,West,281,0.0,2.0,79,0.00,,,0.00,weatherlink.com 1.10,2013-02-05 18:21:00,
2013-02-05 13:36:00,36.2,31.0,29.84,West,269,0.0,1.0,80,0.00,,,0.00,weatherlink.com 1.10,2013-02-05 18:36:00,
2013-02-05 13:51:00,36.5,31.0,29.84,SW,222,0.0,2.0,80,0.00,,,0.00,weatherlink.com 1.10,2013-02-05 18:51:00,
2013-02-05 14:06:00,36.2,31.0,29.84,WSW,250,3.0,5.0,82,0.00,,,0.00,weatherlink.com 1.10,2013-02-05 19:06:00,
2013-02-05 14:21:00,35.0,31.0,29.84,WNW,284,3.0,4.0,85,0.00,,,0.00,weatherlink.com 1.10,2013-02-05 19:21:00,
2013-02-05 14:36:00,34.6,31.0,29.85,West,280,1.0,4.0,85,0.00,,,0.00,weatherlink.com 1.10,2013-02-05 19:36:00,
2013-02-05 14:51:00,34.8,31.0,29.84,West,271,0.0,0.0,86,0.00,,,0.00,weatherlink.com 1.10,2013-02-05 19:51:00,
2013-02-05 15:06:00,34.7,31.0,29.84,WNW,288,0.0,0.0,87,0.00,,,0.00,weatherlink.com 1.10,2013-02-05 20:06:00,
2013-02-05 15:21:00,34.5,31.0,29.85,SSE,150,0.0,3.0,88,0.00,,,0.00,weatherlink.com 1.10,2013-02-05 20:21:00,
2013-02-05 15:36:00,34.2,31.0,29.85,West,269,0.0,2.0,88,0.00,,,0.00,weatherlink.com 1.10,2013-02-05 20:36:00,
2013-02-05 15:51:00,34.3,31.0,29.84,SSW,205,1.0,4.0,88,0.00,,,0.00,weatherlink.com 1.10,2013-02-05 20:51:00,
2013-02-05 16:06:00,34.4,32.0,29.84,SW,219,0.0,1.0,89,0.00,,,0.00,weatherlink.com 1.10,2013-02-05 21:06:00,
2013-02-05 16:21:00,34.4,32.0,29.85,WSW,240,0.0,1.0,89,0.01,,,0.01,weatherlink.com 1.10,2013-02-05 21:21:00,
2013-02-05 16:36:00,34.4,31.0,29.85,West,259,0.0,2.0,88,0.01,,,0.01,weatherlink.com 1.10,2013-02-05 21:36:00,
2013-02-05 16:52:00,34.8,32.0,29.86,WSW,250,2.0,3.0,88,0.01,,,0.01,weatherlink.com 1.10,2013-02-05 21:52:00,
2013-02-05 17:06:00,34.4,32.0,29.86,WNW,283,0.0,4.0,89,0.01,,,0.01,weatherlink.com 1.10,2013-02-05 22:06:00,
2013-02-05 17:22:00,34.2,31.0,29.85,North,359,0.0,1.0,89,0.00,,,0.01,weatherlink.com 1.10,2013-02-05 22:22:00,
2013-02-05 17:37:00,33.6,31.0,29.85,North,358,2.0,2.0,90,0.00,,,0.01,weatherlink.com 1.10,2013-02-05 22:37:00,
2013-02-05 17:52:00,33.2,31.0,29.85,ESE,118,0.0,1.0,91,0.00,,,0.01,weatherlink.com 1.10,2013-02-05 22:52:00,
2013-02-05 18:07:00,33.0,31.0,29.85,SE,136,0.0,1.0,91,0.00,,,0.01,weatherlink.com 1.10,2013-02-05 23:07:00,
2013-02-05 18:22:00,32.2,30.0,29.86,SW,215,0.0,0.0,92,0.00,,,0.01,weatherlink.com 1.10,2013-02-05 23:22:00,
2013-02-05 18:37:00,31.3,29.0,29.86,West,266,0.0,1.0,92,0.01,,,0.02,weatherlink.com 1.10,2013-02-05 23:37:00,
2013-02-05 18:52:00,31.1,29.0,29.86,West,266,0.0,0.0,92,0.01,,,0.02,weatherlink.com 1.10,2013-02-05 23:52:00,
2013-02-05 19:07:00,30.7,29.0,29.87,ESE,123,0.0,0.0,93,0.01,,,0.02,weatherlink.com 1.10,2013-02-06 00:07:00,
2013-02-05 19:22:00,30.9,29.0,29.87,ESE,108,2.0,2.0,93,0.01,,,0.02,weatherlink.com 1.10,2013-02-06 00:22:00,
2013-02-05 19:37:00,30.9,29.0,29.87,ESE,105,0.0,0.0,93,0.00,,,0.02,weatherlink.com 1.10,2013-02-06 00:37:00,
2013-02-05 19:52:00,30.2,29.0,29.88,West,281,0.0,1.0,93,0.00,,,0.02,weatherlink.com 1.10,2013-02-06 00:52:00,
2013-02-05 20:07:00,29.9,28.0,29.88,North,352,1.0,1.0,93,0.00,,,0.02,weatherlink.com 1.10,2013-02-06 01:07:00,
2013-02-05 20:22:00,30.0,29.0,29.89,NNW,344,0.0,0.0,94,0.00,,,0.02,weatherlink.com 1.10,2013-02-06 01:22:00,
2013-02-05 20:37:00,29.9,28.0,29.89,NNW,345,0.0,0.0,94,0.00,,,0.02,weatherlink.com 1.10,2013-02-06 01:37:00,
2013-02-05 20:52:00,29.8,28.0,29.90,North,349,0.0,0.0,94,0.00,,,0.02,weatherlink.com 1.10,2013-02-06 01:52:00,
2013-02-05 21:07:00,30.2,29.0,29.90,NE,37,0.0,1.0,94,0.00,,,0.02,weatherlink.com 1.10,2013-02-06 02:07:00,
2013-02-05 21:22:00,30.1,29.0,29.91,NE,37,0.0,0.0,94,0.00,,,0.02,weatherlink.com 1.10,2013-02-06 02:22:00,
2013-02-05 21:37:00,30.4,29.0,29.91,NE,47,0.0,0.0,94,0.00,,,0.02,weatherlink.com 1.10,2013-02-06 02:37:00,
2013-02-05 21:52:00,30.6,29.0,29.92,NE,47,0.0,0.0,94,0.00,,,0.02,weatherlink.com 1.10,2013-02-06 02:52:00,
2013-02-05 22:07:00,30.5,29.0,29.92,NE,47,0.0,0.0,94,0.00,,,0.02,weatherlink.com 1.10,2013-02-06 03:07:00,
2013-02-05 22:22:00,30.2,29.0,29.93,North,349,0.0,0.0,94,0.00,,,0.02,weatherlink.com 1.10,2013-02-06 03:22:00,
2013-02-05 22:37:00,29.9,28.0,29.93,NNW,339,0.0,0.0,94,0.00,,,0.02,weatherlink.com 1.10,2013-02-06 03:37:00,
2013-02-05 22:52:00,29.6,28.0,29.92,NNW,339,0.0,0.0,94,0.00,,,0.02,weatherlink.com 1.10,2013-02-06 03:52:00,
2013-02-05 23:07:00,29.2,28.0,29.92,NNW,339,0.0,0.0,94,0.00,,,0.02,weatherlink.com 1.10,2013-02-06 04:07:00,
2013-02-05 23:22:00,28.6,27.0,29.93,NNW,339,0.0,0.0,94,0.00,,,0.02,weatherlink.com 1.10,2013-02-06 04:22:00,
2013-02-05 23:37:00,28.4,27.0,29.93,NNE,24,0.0,0.0,94,0.00,,,0.02,weatherlink.com 1.10,2013-02-06 04:37:00,
2013-02-05 23:52:00,28.0,27.0,29.93,NNE,24,0.0,0.0,94,0.00,,,0.02,weatherlink.com 1.10,2013-02-06 04:52:00,